STARLINK-37057

Last updated on Sun Apr 12 2026 00:02:06 GMT+0000 (Coordinated Universal Time)

1 68161U 26049V 26101.53340571 .00356148 00000+0 22759-2 0 9994 2 68161 97.2844 122.4804 0001570 68.9262 291.2171 15.75337666 4595
UTC large
Height (km)
Speed (km/s)
/
Latitude / Longitude
Inclination (degrees)
Orbital Period (minutes)
Azimuth
Elevation
Range (km)
Doppler Factor

Next 0 passes for location: London (51.5072 / 0.1276)

Sorry there are no passes over London.
STARLINK-37057